Home   Weather   New Paris   Past weeks
Flag for USA

Past Weather in New Paris, Pennsylvania, USA — Yesterday and Last 2 Weeks

Now
89 °F

Scattered clouds.


Feels Like: 93 °F
Forecast: 93 / 70 °F
Wind: 10 mph from West

Location: Bedford County Airport

Current Time: Jul 19, 2019 at 7:16:55 pm

Latest Report: Jul 19, 2019 at 6:15 pm


Visibility: 10 mi

Pressure: 29.94 "Hg

Humidity: 51%

Dew Point: 69 °F

Location of New ParisLocation

Past Weather in New Paris — Graph

°F

New Paris Temperature Yesterday

Maximum temperature yesterday: 86 °F (at 4:15 pm)
Minimum temperature yesterday: 69 °F (at 11:55 pm)
Average temperature yesterday: 77 °F

High & Low Weather Summary for the Past Weeks

 TemperatureHumidityPressure
High93 °F (Jul 19, 2:55 pm)98% (Jul 5, 12:35 am)30.18 "Hg (Jul 5, 12:35 am)
Low54 °F (Jul 15, 6:15 am)34% (Jul 15, 3:55 pm)29.81 "Hg (Jul 11, 7:35 pm)
Average73 °F81%30.01 "Hg
* Reported Jul 4 5:15 pm — Jul 19 5:55 pm, New Paris. Weather by CustomWeather, © 2019

Note: Actual official high and low records may vary slightly from our data, if they occured in-between our weather recording intervals... More about our weather records

Advertising

New Paris Weather History for the Previous 24 Hours

Scroll right to see more
 ConditionsComfort  
Time TempWeatherWind HumidityBarometerVisibility
5:55 pm
Fri, Jul 19
90 °FScattered clouds.10 mph50%29.95 "Hg10 mi
4:55 pm91 °FScattered clouds.12 mph46%29.96 "Hg10 mi
3:55 pm92 °FScattered clouds.8 mph43%29.97 "Hg10 mi
3:35 pm92 °FSunny.9 mph43%29.96 "Hg10 mi
3:15 pm93 °FScattered clouds.12 mph41%29.96 "Hg10 mi
2:55 pm93 °FScattered clouds.10 mph41%29.96 "Hg10 mi
2:15 pm92 °FSunny.8 mph42%29.97 "Hg10 mi
1:55 pm91 °FSunny.12 mph43%29.97 "Hg10 mi
1:35 pm91 °FSunny.8 mph43%29.96 "Hg10 mi
1:15 pm90 °FSunny.7 mph44%29.97 "Hg10 mi
12:55 pm91 °FSunny.8 mph45%29.97 "Hg10 mi
12:35 pm90 °FSunny.10 mph43%29.98 "Hg10 mi
12:15 pm90 °FSunny.9 mph45%29.99 "Hg10 mi
10:15 am84 °FPartly sunny.8 mph66%29.99 "Hg10 mi
9:55 am83 °FPartly sunny.No wind69%29.99 "Hg10 mi
9:15 am82 °FPartly sunny.6 mph71%29.99 "Hg10 mi
8:55 am79 °FScattered clouds.5 mph80%29.99 "Hg10 mi
8:15 am73 °FScattered clouds.3 mph93%29.99 "Hg7 mi
7:55 am72 °FScattered clouds.No wind93%29.99 "Hg7 mi
7:15 am68 °FFog.No wind98%29.99 "Hg5 mi
6:55 am67 °FFog.No wind97%29.99 "Hg5 mi
6:35 am66 °FFog.No wind98%29.98 "Hg5 mi
6:15 am65 °FFog.No wind98%29.98 "Hg4 mi
5:55 am65 °FFog.No wind98%29.98 "Hg1 mi
5:35 am65 °FFog.No wind97%29.97 "Hg1 mi
5:15 am66 °FFog.No wind98%29.97 "Hg2 mi
4:55 am66 °FFog.No wind98%29.97 "Hg5 mi
4:15 am66 °FFog.No wind97%29.97 "Hg5 mi
3:55 am67 °FFog.No wind98%29.97 "Hg5 mi
3:15 am67 °FFog.No wind98%29.98 "Hg4 mi
2:55 am67 °FFog.No wind98%29.98 "Hg1 mi
2:15 am68 °FFog.No wind98%29.98 "Hg5 mi
1:55 am68 °FPassing clouds.No wind98%29.98 "Hg7 mi
1:15 am68 °FClear.No wind97%29.99 "Hg7 mi
12:55 am68 °FFog.No wind98%29.98 "Hg5 mi
12:15 am69 °FClear.No wind98%29.97 "Hg10 mi
11:55 pm
Thu, Jul 18
69 °FClear.No wind98%29.97 "Hg10 mi
11:15 pm70 °FClear.6 mph98%29.97 "Hg10 mi
10:55 pm71 °FClear.5 mph95%29.95 "Hg10 mi
10:35 pm71 °FClear.No wind98%29.94 "Hg10 mi
10:15 pm72 °FClear.No wind93%29.94 "Hg10 mi
9:55 pm73 °FClear.3 mph90%29.94 "Hg10 mi
8:35 pm78 °FSunny.3 mph75%29.93 "Hg10 mi
8:15 pm81 °FSunny.No wind64%29.93 "Hg10 mi
7:55 pm82 °FSunny.No wind62%29.93 "Hg10 mi
7:35 pm82 °FSunny.6 mph59%29.93 "Hg10 mi
7:15 pm83 °FSunny.6 mph57%29.93 "Hg10 mi
Weather by CustomWeather, © 2019

See weather overview